Temperature
23 20 20 21 21 23 23 23 22 23 24 23 23 22 21 21 21 21 20 20 20 20 21 20 20 20 19 19 19 18 18 18 18 17 17 17 17 17 17 17 17 17 17 17
21 21 21 22 22 23 23 23 22 22 23 24 22 22 21 21 21 21 21 20 20 20 20 20 20 20 19 19 19 18 18 18 18 18 18 18 18 17 17 17 17 17 17 17
21 22 22 22 23 23 23 22 23 23 23 22 23 22 22 21 21 21 21 21 20 20 20 20 20 20 19 19 19 19 18 18 18 18 18 17 17 17 17 17 17 17 17 17
21 22 23 23 23 23 22 23 23 23 22 21 22 21 21 20 20 20 20 21 20 20 20 20 20 20 20 19 19 18 18 18 18 18 18 18 17 17 18 18 17 17 17 17
21 23 23 23 23 23 23 23 23 22 22 21 21 21 20 20 20 20 20 20 20 20 20 20 20 20 19 19 19 18 18 18 18 18 18 18 18 18 17 17 17 17 17 17
22 23 23 23 24 24 24 22 20 18 18 20 21 21 20 19 20 20 20 20 20 20 20 20 20 20 19 19 18 18 18 18 18 18 18 18 18 18 17 17 17 17 17 17
22 23 23 24 24 24 23 20 19 20 19 20 20 20 19 20 20 20 20 20 20 20 20 20 20 19 19 19 18 18 18 18 18 18 17 17 17 17 17 17 17 17 17 17
21 21 23 23 23 23 22 20 20 21 20 19 19 20 20 20 20 21 21 21 20 20 20 20 20 20 19 19 19 18 18 18 18 18 17 17 17 17 17 17 17 17 17 17
20 21 23 24 23 23 21 20 19 18 19 20 19 20 20 20 20 20 20 20 20 20 20 20 20 20 19 19 19 18 18 18 18 18 17 17 17 17 17 17 17 17 17 17
20 22 23 23 23 22 21 18 17 18 19 20 21 20 20 21 20 19 19 19 20 20 20 20 20 20 19 19 19 18 18 18 18 18 17 17 17 17 17 17 17 17 17 17
20 21 22 22 24 23 21 20 17 16 17 18 20 20 20 20 20 19 19 20 21 21 21 21 20 20 19 19 19 18 18 18 18 18 18 17 17 17 17 17 17 17 17 17
19 18 19 21 22 23 22 20 18 20 19 17 18 19 21 19 19 19 20 20 21 21 21 21 20 20 19 19 19 18 18 18 18 18 17 17 17 17 17 17 17 17 17 16
19 18 19 21 21 22 22 20 18 17 15 16 18 21 20 19 19 20 20 20 21 21 21 21 20 20 20 19 19 19 18 18 18 18 17 17 17 17 17 17 17 17 16 16
18 17 19 20 20 21 22 21 18 18 17 17 18 20 20 19 18 19 20 20 20 21 21 21 20 20 20 19 19 18 18 18 18 18 17 17 17 17 17 17 17 16 16 16
18 18 19 20 21 21 22 22 20 20 19 19 20 19 20 19 19 19 20 20 20 20 20 21 20 20 20 19 19 19 18 18 18 18 17 17 17 17 17 16 16 16 16 16
16 18 19 21 21 21 22 21 21 21 20 20 20 20 19 19 19 19 19 20 20 20 21 21 20 20 20 20 19 19 18 18 18 18 17 17 17 16 16 16 16 16 16 16
15 17 18 19 20 21 21 21 21 21 20 20 20 20 19 18 18 19 20 20 21 21 21 21 21 21 20 20 20 19 18 18 18 17 17 17 16 16 16 16 16 15 15 15
15 15 14 17 20 21 20 20 20 20 20 19 19 19 18 18 19 20 20 21 21 21 21 21 21 20 20 19 19 19 18 18 17 17 17 16 16 16 15 15 15 15 15 15
14 15 14 15 17 19 20 19 19 19 20 19 18 18 18 18 18 19 20 21 21 21 21 20 20 20 20 19 19 18 18 17 17 17 16 16 16 15 15 15 15 15 15 15
13 14 14 15 18 18 19 19 19 19 19 18 18 17 17 18 18 18 20 20 20 20 20 20 20 19 19 18 18 18 17 17 17 16 16 16 15 15 15 15 14 14 14 14
15 14 15 15 17 17 17 17 19 19 19 18 18 18 18 17 18 19 19 19 19 19 19 19 19 19 19 18 18 17 17 17 16 16 15 15 15 14 14 14 14 14 14 13
14 14 14 14 16 17 17 17 17 17 18 18 18 18 18 18 19 19 19 19 19 19 19 19 19 18 18 18 17 17 17 16 16 15 15 15 14 14 14 14 13 13 13 13
12 13 13 14 15 15 15 16 17 17 17 18 18 18 18 18 18 18 18 18 18 18 18 18 18 17 17 17 17 17 16 15 15 15 15 14 14 14 13 13 13 13 12 12
13 12 12 13 14 14 15 16 16 17 18 18 18 18 18 18 18 17 17 17 17 17 17 17 17 17 16 16 16 16 15 15 15 14 14 14 13 13 13 12 12 12 12 11
12 12 12 12 13 14 15 16 16 17 17 18 18 18 18 18 17 17 16 17 17 16 16 16 16 16 15 15 15 15 15 14 14 14 13 13 13 12 12 11 11 11 11 11
11 12 12 12 13 13 14 15 16 16 17 17 17 17 17 17 17 16 16 16 16 15 15 15 15 15 15 14 14 14 14 14 13 13 13 12 12 12 11 11 10 10 10 9
Wind_Speed
3 4 4 6 6 5 2 1 6 7 4 2 3 4 3 3 4 5 5 6 6 6 4 5 7 8 9 10 10 11 11 10 9 6 6 5 5 5 4 6 9 9 9 10
4 3 7 5 4 3 2 3 5 6 4 1 2 4 2 2 4 5 7 8 7 5 4 6 6 7 9 10 10 10 10 10 9 7 6 4 4 4 4 4 6 9 9 9
7 5 4 5 3 3 3 5 5 4 5 5 3 6 4 2 1 3 4 5 6 7 7 7 7 7 7 9 9 10 10 9 9 8 5 4 3 2 2 3 4 6 9 10
5 6 3 4 4 6 5 6 6 3 1 3 3 3 7 3 4 4 4 5 6 6 6 6 6 6 7 7 7 8 8 9 8 8 7 8 6 5 5 4 4 5 8 9
7 4 5 6 7 8 7 1 2 1 3 1 3 1 8 3 5 6 6 6 6 7 7 7 7 7 6 7 7 7 7 7 8 8 9 8 5 4 3 3 4 4 4 6
6 4 5 7 4 6 4 6 7 6 5 2 2 2 7 4 6 5 4 6 7 7 7 7 6 5 4 6 7 7 7 7 7 8 8 8 7 6 5 4 4 4 3 3
3 4 5 5 1 1 5 6 5 5 4 5 4 2 9 7 6 6 6 5 6 7 7 8 7 7 5 6 7 7 8 7 7 8 8 7 7 8 8 6 6 5 4 3
4 6 5 6 8 6 6 9 8 5 5 5 4 5 8 6 4 2 3 5 7 7 7 7 8 8 7 7 6 7 7 7 7 7 7 6 7 6 6 6 6 6 5 5
8 6 5 5 6 10 7 5 7 7 3 1 5 7 8 2 2 2 4 6 7 6 6 6 6 6 7 7 7 7 8 6 7 7 6 6 6 6 6 6 5 4 4 4
10 4 4 3 4 4 6 10 7 7 6 2 5 5 5 5 3 2 4 5 6 6 6 5 5 5 5 6 5 6 6 6 6 6 6 5 5 5 5 5 5 5 4 4
7 5 4 3 4 7 6 6 6 6 6 7 3 7 6 8 7 7 7 7 8 8 7 6 5 5 5 5 5 5 5 5 5 5 5 5 4 4 5 4 4 4 3 4
7 6 4 7 5 3 6 9 9 6 5 5 5 8 5 6 6 5 6 6 6 6 7 7 6 6 6 6 5 5 5 5 4 4 4 5 4 5 4 4 3 4 4 4
8 7 2 6 5 1 3 5 6 7 6 6 5 7 3 1 2 4 4 5 6 6 6 6 6 6 6 6 6 5 5 5 4 4 4 4 5 5 4 4 3 3 4 3
7 6 7 10 8 5 4 4 6 7 6 6 8 8 6 5 5 5 5 5 5 6 7 7 7 6 6 6 6 5 4 4 4 5 5 5 5 4 4 4 4 3 4 4
6 5 5 5 4 4 4 5 7 6 9 9 8 8 10 9 8 7 6 6 6 6 7 8 7 6 6 6 5 5 5 4 5 5 5 5 5 5 5 4 4 4 4 4
4 5 3 0 1 3 2 3 6 5 5 5 4 7 7 4 3 4 6 8 8 8 8 8 7 7 7 7 7 6 6 5 5 6 5 5 6 5 5 5 5 5 5 5
3 5 4 2 1 3 2 3 4 4 4 6 7 8 3 3 6 8 9 9 9 9 8 8 7 7 7 7 7 7 6 6 6 6 6 6 6 6 5 5 6 6 5 5
5 5 4 3 4 4 6 2 2 4 2 3 4 4 5 6 5 3 3 7 7 6 7 6 6 6 5 6 6 6 7 7 7 7 6 6 6 6 6 6 6 6 5 6
4 7 5 4 4 3 4 1 1 2 3 2 3 3 2 4 4 3 1 3 5 5 5 5 5 5 6 7 7 8 7 7 7 6 6 6 7 7 7 6 6 5 6 6
6 5 6 5 5 6 6 4 2 3 3 2 2 4 5 5 3 3 1 4 4 4 4 5 5 6 7 7 8 9 8 7 7 6 7 7 7 7 7 6 6 5 6 7
4 4 4 4 4 5 5 4 1 5 6 3 3 4 6 5 4 3 5 6 5 5 5 5 6 6 6 7 8 8 7 6 6 7 7 7 7 7 7 7 6 7 7 8
3 4 4 5 4 6 3 1 4 5 2 1 2 3 4 4 5 6 7 6 6 6 6 6 6 5 5 7 9 8 6 6 7 8 8 8 7 7 7 8 7 7 7 8
2 4 4 5 5 4 2 3 4 2 2 1 2 2 5 6 5 6 6 6 6 5 5 6 7 7 5 5 7 9 6 7 8 9 8 8 8 7 7 8 8 6 6 6
1 1 2 1 3 3 3 3 3 1 1 0 2 4 5 7 7 7 6 6 6 6 6 6 7 7 6 5 6 6 7 7 9 9 8 8 8 8 7 6 5 5 5 5
3 1 1 1 3 3 3 3 3 3 2 3 4 3 5 8 8 7 6 6 6 5 5 6 6 6 6 6 6 6 6 8 9 9 8 8 8 8 8 7 6 5 4 4
3 4 5 5 5 3 3 3 2 2 2 3 4 4 5 6 7 7 6 5 6 6 5 6 6 6 6 6 6 5 6 7 9 8 7 6 7 7 7 8 8 13 10 12
Wind_Direction
91 90 192 205 185 177 165 280 291 280 297 323 290 285 279 208 185 192 189 190 198 200 186 161 168 168 167 166 170 175 174 172 166 167 170 172 183 188 194 202 200 196 192 187
58 253 224 184 168 170 204 297 294 304 351 18 333 323 307 200 206 203 197 196 192 180 159 153 153 162 170 174 175 176 179 175 175 179 173 172 172 185 192 193 191 193 192 187
176 225 173 158 179 202 244 221 243 265 346 18 30 339 317 297 245 218 203 188 179 182 177 166 162 167 166 171 179 183 180 178 180 175 158 142 130 131 162 184 190 190 188 187
212 239 194 190 208 176 259 233 215 230 30 321 34 299 289 293 289 248 222 193 181 177 171 167 167 172 175 175 171 176 176 178 180 175 174 173 180 186 192 186 185 183 183 183
221 204 179 206 214 176 217 236 159 155 148 17 14 162 286 319 274 258 231 206 184 174 173 172 176 182 177 169 169 173 169 176 178 181 183 182 185 181 165 164 171 180 183 185
223 220 198 205 200 184 170 71 53 48 70 15 293 191 280 258 244 262 233 198 181 174 172 172 164 157 164 160 165 166 172 179 177 179 181 183 182 171 166 175 184 187 185 192
273 264 232 186 161 54 115 93 34 5 15 257 287 240 253 264 257 239 227 197 173 167 166 162 155 158 172 174 170 170 175 182 179 180 185 186 183 179 183 186 192 187 191 200
191 275 239 194 181 178 167 141 157 191 215 273 316 250 261 277 283 236 176 157 151 157 166 169 168 171 178 181 174 174 181 185 179 183 190 188 184 183 186 186 185 191 199 206
178 246 279 234 191 148 136 159 154 129 146 328 293 290 305 342 23 80 129 141 153 160 164 173 169 166 168 173 177 179 179 178 179 183 183 186 188 186 186 184 183 190 196 202
156 217 288 302 98 51 137 140 108 120 143 227 293 288 263 267 243 188 168 166 164 159 158 164 165 165 170 171 166 162 168 176 177 176 183 188 187 186 180 175 184 190 192 190
145 169 293 0 165 167 117 105 106 112 144 153 230 270 232 221 212 200 196 185 177 171 165 164 161 159 158 150 154 161 165 165 169 176 178 177 172 167 164 170 182 184 181 178
152 137 228 263 265 182 161 161 147 149 188 166 174 263 278 224 218 203 193 184 176 170 161 157 154 151 152 153 156 164 167 172 178 174 166 169 162 156 157 169 175 169 171 168
141 129 113 334 340 97 150 154 146 123 119 150 170 259 309 279 216 205 190 182 175 165 156 149 151 158 163 163 164 166 169 174 170 162 159 157 156 156 162 167 161 155 158 155
125 123 163 192 210 189 166 156 149 128 144 185 213 241 279 253 228 220 208 188 173 169 164 161 166 171 174 166 161 160 159 157 151 147 149 150 154 153 150 142 135 141 144 145
114 148 191 215 208 168 173 173 166 169 177 180 220 220 243 230 218 211 198 175 164 167 174 175 176 177 170 158 152 150 150 145 143 139 141 146 137 127 123 118 115 114 114 121
90 136 140 112 155 165 161 182 176 183 174 195 205 244 246 230 171 181 187 181 181 181 183 183 181 177 173 167 158 153 152 148 142 141 138 127 120 117 114 111 104 99 93 93
101 116 113 205 269 103 213 216 180 178 186 176 203 231 215 177 188 196 195 191 192 188 184 184 185 186 178 170 159 159 158 146 141 139 133 128 127 124 121 118 109 104 98 93
134 114 120 130 104 185 238 284 178 162 206 209 232 238 204 200 190 182 192 193 195 185 179 180 175 170 158 150 143 142 139 137 135 133 129 126 125 121 116 110 106 101 97 96
146 134 119 123 150 242 287 291 134 164 257 245 225 236 170 126 84 21 315 176 175 165 160 162 162 155 144 144 143 136 134 131 131 132 129 127 128 126 121 115 109 102 102 96
62 94 116 127 146 204 234 271 282 136 271 277 198 187 160 130 143 243 173 114 114 115 126 134 132 127 134 140 139 137 138 137 141 141 133 127 125 127 125 121 113 103 101 97
53 61 115 142 176 241 256 287 71 158 233 262 206 190 167 176 192 166 111 100 103 107 109 112 116 126 137 135 130 135 136 143 140 128 121 119 122 123 120 114 108 106 104 98
159 140 154 138 161 235 295 65 173 218 271 255 202 177 154 135 117 110 106 107 103 101 101 107 111 109 117 133 136 137 141 137 126 121 118 117 117 117 116 113 108 106 109 107
179 185 179 184 204 252 292 252 272 250 245 255 162 138 137 132 128 116 111 109 105 103 103 106 115 109 101 113 133 140 141 135 129 122 119 115 111 109 114 118 118 112 109 113
291 132 135 270 284 296 314 316 321 313 243 227 136 131 135 135 129 116 111 105 103 104 107 110 113 114 106 100 105 122 132 133 129 124 120 118 114 107 101 100 107 115 120 122
249 142 121 270 276 325 334 333 337 5 52 90 97 101 128 129 128 126 120 116 109 103 102 109 117 119 114 109 105 109 121 126 125 123 122 119 115 113 102 88 76 92 84 123
218 182 177 219 228 199 249 296 335 34 60 103 106 90 99 119 125 119 113 108 104 99 98 99 105 112 114 115 109 107 115 125 129 126 124 122 120 115 114 109 85 62 72 79
Height
1497 1504 1510 1508 1507 1508 1510 1514 1517 1509 1500 1501 1502 1502 1498 1496 1497 1498 1500 1502 1503 1505 1508 1510 1512 1513 1515 1518 1521 1524 1527 1530 1534 1538 1542 1545 1548 1551 1554 1557 1559 1562 1564 1566
1503 1507 1502 1502 1504 1506 1510 1514 1515 1507 1500 1501 1504 1503 1498 1497 1497 1497 1498 1500 1502 1505 1507 1508 1510 1512 1513 1516 1519 1522 1525 1529 1533 1537 1541 1544 1547 1550 1553 1555 1558 1560 1563 1565
1503 1501 1497 1501 1504 1508 1510 1513 1512 1510 1505 1503 1505 1509 1502 1497 1496 1497 1497 1499 1501 1503 1505 1507 1509 1510 1512 1515 1518 1520 1524 1528 1532 1536 1539 1543 1546 1549 1551 1554 1556 1559 1561 1563
1499 1496 1497 1500 1503 1505 1513 1503 1505 1507 1514 1521 1514 1527 1507 1500 1498 1496 1496 1497 1499 1502 1504 1506 1508 1510 1512 1514 1517 1520 1523 1526 1530 1534 1537 1540 1543 1545 1548 1552 1555 1557 1559 1561
1498 1494 1495 1499 1498 1499 1502 1499 1502 1506 1513 1522 1519 1525 1516 1503 1500 1496 1494 1495 1498 1500 1502 1504 1507 1509 1512 1514 1516 1519 1522 1525 1529 1532 1535 1538 1542 1545 1548 1551 1553 1555 1558 1560
1492 1490 1490 1491 1491 1493 1495 1502 1508 1517 1524 1534 1523 1526 1521 1507 1499 1494 1492 1494 1496 1498 1501 1503 1506 1509 1511 1513 1516 1518 1521 1524 1527 1531 1534 1537 1540 1543 1546 1548 1551 1553 1555 1557
1495 1490 1486 1486 1492 1493 1497 1515 1535 1536 1544 1540 1525 1525 1519 1498 1493 1491 1490 1492 1494 1497 1499 1502 1505 1507 1510 1512 1515 1517 1520 1523 1526 1529 1532 1535 1538 1541 1544 1546 1548 1550 1553 1555
1504 1504 1487 1484 1488 1495 1499 1509 1533 1542 1545 1539 1526 1525 1508 1492 1489 1488 1489 1491 1494 1496 1499 1501 1504 1506 1509 1511 1514 1517 1519 1522 1525 1527 1530 1534 1537 1539 1541 1543 1546 1548 1550 1553
1503 1502 1483 1480 1480 1487 1501 1508 1510 1530 1535 1538 1531 1517 1501 1491 1490 1489 1489 1491 1493 1495 1499 1501 1503 1506 1509 1511 1514 1516 1519 1521 1524 1526 1529 1532 1534 1537 1539 1541 1543 1546 1548 1550
1489 1496 1485 1480 1481 1485 1490 1501 1517 1529 1543 1543 1531 1523 1514 1497 1493 1491 1490 1491 1493 1495 1499 1502 1504 1506 1509 1511 1514 1516 1519 1521 1523 1525 1528 1530 1532 1534 1536 1539 1541 1543 1545 1548
1482 1494 1491 1486 1485 1490 1496 1503 1513 1526 1529 1541 1540 1526 1496 1492 1489 1489 1489 1490 1492 1495 1497 1501 1504 1506 1508 1511 1514 1516 1518 1520 1522 1524 1526 1528 1530 1532 1534 1537 1539 1541 1543 1545
1480 1493 1501 1492 1482 1480 1484 1494 1506 1518 1526 1531 1533 1522 1487 1486 1486 1487 1488 1490 1492 1495 1497 1500 1503 1506 1508 1510 1513 1515 1517 1519 1521 1523 1524 1526 1528 1530 1532 1535 1537 1539 1541 1542
1479 1493 1506 1503 1496 1486 1486 1491 1496 1507 1522 1532 1530 1514 1487 1485 1485 1486 1488 1489 1492 1494 1497 1500 1502 1505 1507 1509 1512 1514 1516 1518 1520 1521 1522 1524 1526 1528 1531 1533 1535 1537 1538 1540
1471 1488 1498 1504 1498 1487 1487 1489 1495 1501 1517 1523 1517 1504 1490 1486 1486 1486 1487 1488 1491 1493 1496 1499 1501 1504 1506 1508 1511 1513 1515 1517 1518 1520 1521 1523 1525 1527 1529 1532 1533 1535 1536 1538
1470 1485 1485 1484 1480 1480 1481 1484 1490 1492 1498 1506 1501 1499 1488 1483 1483 1483 1485 1487 1490 1492 1495 1497 1500 1503 1505 1507 1510 1512 1515 1517 1518 1519 1520 1522 1524 1526 1529 1530 1532 1533 1535 1536
1474 1482 1483 1483 1480 1480 1483 1482 1485 1486 1489 1492 1491 1491 1480 1479 1481 1483 1484 1486 1488 1490 1493 1496 1499 1501 1504 1506 1509 1511 1514 1516 1517 1519 1520 1522 1524 1526 1528 1529 1531 1532 1533 1534
1478 1482 1490 1493 1484 1482 1492 1484 1483 1483 1483 1485 1489 1483 1477 1479 1479 1480 1481 1483 1485 1488 1492 1495 1498 1501 1503 1505 1507 1510 1513 1515 1517 1519 1520 1522 1524 1525 1527 1528 1529 1530 1532 1533
1477 1484 1493 1496 1491 1501 1490 1477 1476 1478 1479 1478 1478 1476 1475 1475 1476 1478 1480 1482 1484 1488 1491 1494 1497 1500 1502 1505 1507 1510 1512 1514 1516 1518 1519 1522 1524 1525 1527 1528 1529 1530 1531 1532
1472 1481 1493 1501 1501 1496 1484 1477 1478 1480 1480 1476 1476 1475 1475 1476 1478 1480 1481 1482 1485 1488 1490 1493 1496 1499 1501 1503 1506 1508 1511 1513 1515 1517 1519 1521 1523 1524 1526 1527 1529 1530 1531 1532
1475 1477 1489 1498 1499 1501 1486 1475 1474 1478 1483 1474 1474 1474 1475 1476 1482 1481 1480 1481 1485 1488 1490 1493 1495 1498 1500 1502 1505 1507 1510 1512 1514 1516 1518 1520 1522 1524 1525 1526 1528 1529 1530 1531
1482 1486 1490 1495 1496 1491 1478 1474 1474 1487 1483 1472 1472 1472 1473 1475 1477 1478 1479 1481 1485 1488 1490 1493 1495 1497 1499 1502 1504 1506 1509 1511 1513 1515 1517 1519 1521 1523 1524 1526 1527 1529 1530 1531
1486 1488 1492 1495 1496 1493 1475 1474 1477 1477 1471 1470 1471 1472 1473 1474 1476 1477 1479 1482 1485 1487 1490 1492 1495 1497 1499 1500 1503 1505 1508 1511 1513 1515 1516 1518 1520 1522 1523 1525 1526 1528 1529 1531
1484 1484 1485 1486 1486 1477 1474 1474 1472 1471 1470 1470 1471 1472 1473 1475 1477 1478 1480 1483 1485 1488 1490 1492 1494 1497 1499 1500 1502 1504 1507 1510 1512 1514 1515 1517 1519 1521 1523 1525 1526 1527 1528 1529
1481 1480 1482 1482 1478 1475 1473 1472 1471 1470 1470 1470 1471 1472 1473 1475 1477 1479 1481 1484 1485 1488 1490 1491 1494 1496 1498 1500 1502 1504 1506 1509 1511 1512 1514 1516 1518 1520 1522 1524 1525 1527 1528 1529
1481 1480 1481 1481 1477 1475 1473 1472 1472 1470 1470 1471 1472 1473 1474 1476 1478 1480 1482 1484 1486 1488 1489 1491 1493 1495 1497 1499 1502 1504 1506 1508 1510 1511 1513 1515 1517 1519 1521 1523 1525 1527 1528 1530
1478 1478 1480 1480 1475 1475 1474 1473 1473 1472 1471 1472 1473 1474 1476 1477 1479 1481 1483 1485 1486 1487 1489 1491 1493 1495 1497 1499 1501 1503 1505 1507 1509 1511 1513 1515 1517 1519 1521 1523 1524 1527 1529 1530